{"data":{"norad_id":69817,"intl_designator":"2026-153T","name":"QIANFAN-218","alt_names":[],"object_type":"PAYLOAD","status":"ACTIVE","operator":null,"country":"PRC","launch_date":"2026-07-04","launch_site_code":"TAISC","launch_vehicle":null,"mission":null,"orbit_class":"UNKNOWN","rcs_meters":null,"size_class":null,"mass_kg":null,"dimensions":null,"purposes":[],"wikipedia_slug":null,"has_3d_model":false,"image_url":null,"decayed_at":null,"tle_current":{"epoch":"2026-09-20T04:08:27.823200Z","epoch_age_seconds":49965,"freshness":"FRESH","line1":"1 69817U 26153T   26263.17254425  .00000388  00000+0  16799-3 0  9990","line2":"2 69817  88.9979 351.3347 0005891   1.2052 358.9152 14.22320247 11093","mean_motion":14.22320247,"eccentricity":0.0005891,"inclination_deg":88.9979,"raan_deg":351.3347,"arg_perigee_deg":1.2052,"mean_anomaly_deg":358.9152,"bstar":0.00016799,"rev_number":1109,"period_min":101.24302195917,"perigee_km":813.27761163306,"apogee_km":821.75553067059,"semimajor_km":7195.6535711518,"source":"CELESTRAK","updated_at":"2026-09-20T09:00:25.124290Z"}}}